This is the latest recevied weather packets stored in our database for station/object DG9VH-13. If no packets are shown the sender has not sent any weather packets the latest 10 day(s).
| Time | Temp. | Humidity | Pressure | Rain* | Wind** | Luminosity | Snow |
|---|---|---|---|---|---|---|---|
| 1777141204 | 18.33° C | 32% | 1001 hPa | - | - | - | - |
| 1777140604 | 18.33° C | 30% | 1001 hPa | - | - | - | - |
| 1777140001 | 18.89° C | 28% | 1000.8 hPa | - | - | - | - |
| 1777139404 | 18.89° C | 28% | 1000.7 hPa | - | - | - | - |
| 1777138804 | 18.89° C | 27% | 1000.6 hPa | - | - | - | - |
| 1777138201 | 18.89° C | 27% | 1000.5 hPa | - | - | - | - |
| 1777137601 | 19.44° C | 27% | 1000.5 hPa | - | - | - | - |
| 1777137001 | 19.44° C | 27% | 1000.5 hPa | - | - | - | - |
| 1777136404 | 19.44° C | 26% | 1000.4 hPa | - | - | - | - |
| 1777135801 | 19.44° C | 26% | 1000.3 hPa | - | - | - | - |
| 1777135201 | 20° C | 26% | 1000.3 hPa | - | - | - | - |
| 1777134601 | 20° C | 27% | 1000.2 hPa | - | - | - | - |
| 1777134001 | 20° C | 26% | 1000.1 hPa | - | - | - | - |
| 1777133401 | 20° C | 26% | 1000.1 hPa | - | - | - | - |
| 1777132804 | 20° C | 25% | 1000.2 hPa | - | - | - | - |
| 1777132204 | 20° C | 24% | 1000.2 hPa | - | - | - | - |
| 1777131604 | 20° C | 24% | 1000.2 hPa | - | - | - | - |
| 1777131001 | 20° C | 26% | 1000.2 hPa | - | - | - | - |
| 1777130400 | 20° C | 26% | 1000.2 hPa | - | - | - | - |
| 1777129800 | 20° C | 27% | 1000.2 hPa | - | - | - | - |
| 1777129201 | 20° C | 27% | 1000.2 hPa | - | - | - | - |
| 1777128601 | 20° C | 27% | 1000.3 hPa | - | - | - | - |
| 1777128001 | 20° C | 30% | 1000.4 hPa | - | - | - | - |
| 1777127401 | 19.44° C | 32% | 1000.4 hPa | - | - | - | - |
| 1777126801 | 19.44° C | 31% | 1000.4 hPa | - | - | - | - |
* Rain since midnight (hover to see other rain measurements)
** Current wind speed in m/s (hover to see current wind gust speed)